This is the latest recevied weather packets stored in our database for station/object KA1BMF-13. If no packets are shown the sender has not sent any weather packets the latest 10 day(s).
| Time | Temp. | Humidity | Pressure | Rain* | Wind** | Luminosity | Snow |
|---|---|---|---|---|---|---|---|
| 1788393018 | 19.44° C | 82% | 1018.7 hPa | 0 mm | - | 0 W/m² | - |
| 1788392418 | 20° C | 82% | 1018.9 hPa | 0 mm | - | 0 W/m² | - |
| 1788391818 | 20° C | 81% | 1019.1 hPa | 0 mm | - | 1 W/m² | - |
| 1788391218 | 20° C | 81% | 1019.4 hPa | 0 mm | - | 2 W/m² | - |
| 1788390616 | 20° C | 80% | 1019.4 hPa | 0 mm | - | 4 W/m² | - |
| 1788390019 | 20° C | 80% | 1019.7 hPa | 0 mm | - | 10 W/m² | - |
| 1788389419 | 20.56° C | 80% | 1019.8 hPa | 0 mm | - | 15 W/m² | - |
| 1788388816 | 20.56° C | 79% | 1019.9 hPa | 0 mm | - | 30 W/m² | - |
| 1788388216 | 20.56° C | 78% | 1020.1 hPa | 0 mm | - | 41 W/m² | - |
| 1788387617 | 20.56° C | 78% | 1020.1 hPa | 0 mm | - | 44 W/m² | - |
| 1788387020 | 20.56° C | 77% | 1020.1 hPa | 0 mm | - | 54 W/m² | - |
| 1788386417 | 20.56° C | 77% | 1020 hPa | 0 mm | - | 37 W/m² | - |
| 1788385817 | 20.56° C | 76% | 1019.9 hPa | 0 mm | - | 48 W/m² | - |
| 1788385217 | 20.56° C | 75% | 1019.9 hPa | 0 mm | - | 68 W/m² | - |
| 1788384618 | 20.56° C | 75% | 1019.9 hPa | 0 mm | - | 69 W/m² | - |
| 1788384018 | 21.11° C | 75% | 1019.8 hPa | 0 mm | - | 101 W/m² | - |
| 1788383418 | 21.11° C | 76% | 1019.5 hPa | 0 mm | - | 121 W/m² | - |
| 1788382818 | 21.11° C | 76% | 1019.7 hPa | 0 mm | - | 128 W/m² | - |
| 1788382218 | 21.11° C | 75% | 1019.7 hPa | 0 mm | - | 156 W/m² | - |
| 1788381616 | 21.11° C | 75% | 1019.5 hPa | 0.25 mm | - | 171 W/m² | - |
| 1788381016 | 21.11° C | 74% | 1019.6 hPa | 0.25 mm | - | 214 W/m² | - |
| 1788380419 | 21.11° C | 75% | 1019.7 hPa | 0.25 mm | - | 221 W/m² | - |
| 1788379819 | 21.11° C | 76% | 1019.4 hPa | 0.25 mm | - | 276 W/m² | - |
| 1788379220 | 21.11° C | 75% | 1019.5 hPa | 0.25 mm | - | 219 W/m² | - |
| 1788378617 | 21.11° C | 74% | 1019.8 hPa | 0 mm | - | 167 W/m² | - |
* Rain latest hour (hover to see other rain measurements)
** Current wind speed in m/s (hover to see current wind gust speed)